Location: Newark
(46.1292°N, 1.0086°W)
Time: 02:50:30
(UTC+00:00)

Transit 4A - Pass Details

Date: 23 November 2019
Orbit: 870 x 975 km, 66.8° (Epoch: 09 December)

Event Time Altitude Azimuth Distance (km) Brightness Sun altitude
Exits shadow 04:12:28 20° 4° (N) 1,930 9.6 -31.3°
Maximum altitude 04:14:48 26° 38° (NE) 1,682 9.5 -30.9°
Drops below altitude 10° 04:19:37 10° 94° (E) 2,526 11.1 -30.0°
Sets 04:22:30 0° 107° (ESE) 3,455 11.9 -29.5°
